Home > Weather > Maastricht > Past weeks

Flag for Netherlands Past Weather in Maastricht, Netherlands — Yesterday and Last 2 Weeks

Now
59 °F

Overcast.


Feels Like: 57 °F
Forecast: 63 / 74 °F
Wind: 9 mph from Southwest

Location: Maastricht Airport Zuid Limburg

Current Time: Jul 27, 2016 at 7:55:38 AM

Latest Report: Jul 27, 2016 at 7:25 AM


Visibility: N/A

Pressure: 30.07 "Hg

Humidity: 88%

Dew Point: 55 °F

Location of MaastrichtLocation

Past Weather in Maastricht — Graph

°F

Maastricht Temperature Yesterday

Maximum temperature yesterday: 73 °F (at 3:55 PM)
Minimum temperature yesterday: 61 °F (at 1:25 AM)
Average temperature yesterday: 67 °F

High & Low Weather Summary for the Past Weeks

 TemperatureHumidityPressure
High91 °F (Jul 20, 1:55 PM)100% (Jul 12, 11:25 PM)30.30 "Hg (Jul 12, 11:25 PM)
Low48 °F (Jul 14, 3:25 AM)34% (Jul 20, 4:25 PM)29.86 "Hg (Jul 20, 2:55 PM)
Average68 °F76%30.09 "Hg
* Reported Jul 12 6:25 AM — Jul 27 6:55 AM, Maastricht, Weather by CustomWeather, © 2016

Note: Actual official high and low records may vary slightly from our data, if they occured in-between our weather recording intervals... More about our weather records

Advertising

Maastricht Weather History for the Previous 24 Hours

Scroll right to see more
 ConditionsComfort  
Time TempWeatherWind HumidityBarometerVisibility
6:55 AM
Wed, Jul 27
57 °FCool.7 mph94%30.07 "Hg6 mi
6:25 AM55 °FCool.8 mph100%30.07 "Hg4 mi
5:55 AM55 °FPassing clouds.8 mph100%30.07 "Hg4 mi
5:25 AM55 °FCool.8 mph100%30.07 "Hg4 mi
4:55 AM55 °FCool.7 mph100%30.07 "Hg5 mi
4:25 AM57 °FPassing clouds.7 mph94%30.09 "HgN/A
3:55 AM57 °FPassing clouds.5 mph94%30.09 "HgN/A
3:25 AM59 °FCool.3 mph94%30.09 "HgN/A
2:55 AM61 °FCool.5 mph88%30.09 "HgN/A
2:25 AM61 °FCool.6 mph88%30.09 "HgN/A
1:55 AM61 °FCool.6 mph88%30.09 "HgN/A
1:25 AM63 °FMild.3 mph83%30.09 "HgN/A
12:55 AM63 °FClear.6 mph88%30.12 "HgN/A
12:25 AM64 °FPartly cloudy.3 mph83%30.09 "HgN/A
11:55 PM
Tue, Jul 26
63 °FPassing clouds.2 mph88%30.09 "HgN/A
11:25 PM64 °FOvercast.3 mph83%30.09 "HgN/A
10:55 PM64 °FClear.5 mph83%30.12 "HgN/A
10:25 PM64 °FClear.2 mph83%30.09 "HgN/A
9:55 PM68 °FClear.2 mph73%30.09 "HgN/A
9:25 PM68 °FClear.2 mph73%30.09 "HgN/A
8:55 PM68 °FClear.2 mph73%30.09 "HgN/A
8:25 PM72 °FPartly sunny.2 mph65%30.12 "HgN/A
7:55 PM70 °FPassing clouds.3 mph64%30.12 "HgN/A
7:25 PM70 °FScattered clouds.3 mph69%30.12 "HgN/A
6:55 PM72 °FClear.3 mph65%30.12 "HgN/A
6:25 PM72 °FClear.3 mph61%30.12 "HgN/A
5:55 PM73 °FPassing clouds.1 mph61%30.12 "HgN/A
5:25 PM73 °FClear.2 mph57%30.12 "HgN/A
4:55 PM73 °FScattered clouds.2 mph61%30.12 "HgN/A
4:25 PM72 °FOvercast.2 mph61%30.12 "HgN/A
3:55 PM73 °FScattered clouds.3 mph61%30.12 "HgN/A
3:25 PM72 °FBroken clouds.2 mph61%30.12 "HgN/A
2:55 PM72 °FMostly cloudy.1 mph61%30.12 "HgN/A
2:25 PM72 °FPartly sunny.1 mph61%30.15 "HgN/A
1:55 PM72 °FPartly sunny.2 mph61%30.15 "HgN/A
1:25 PM70 °FPartly sunny.2 mph64%30.15 "HgN/A
12:55 PM70 °FOvercast.2 mph64%30.15 "HgN/A
12:25 PM70 °FPartly sunny.2 mph69%30.15 "HgN/A
11:55 AM68 °FOvercast.1 mph73%30.15 "HgN/A
11:25 AM68 °FOvercast.2 mph69%30.15 "HgN/A
10:55 AM68 °FPartly sunny.2 mph64%30.15 "HgN/A
10:25 AM66 °FPartly sunny.2 mph68%30.15 "HgN/A
9:55 AM66 °FBroken clouds.2 mph68%30.15 "HgN/A
9:25 AM64 °FPartly sunny.2 mph78%30.15 "HgN/A
8:55 AM64 °FMore clouds than sun.2 mph73%30.15 "HgN/A
8:25 AM64 °FOvercast.2 mph83%30.15 "HgN/A
7:55 AM63 °FPartly sunny.3 mph88%30.15 "HgN/A
7:25 AM63 °FClear.3 mph88%30.12 "HgN/A
Weather by CustomWeather, © 2016

See weather overviewHow to use our weather pages